Weather History for Sheridan, WY

Change the Weather History Date:

Friday, January 6, 2012

  Actual Average Record
Temperature  
Mean Temperature 32 °F 23 °F  
Max Temperature 40 °F 36 °F 67 °F (2006)
Min Temperature 23 °F 11 °F -34 °F (1913)
Degree Days  
Heating Degree Days 33 42  
Month to date heating degree days 181 252  
Since 1 July heating degree days 3018 3435  
Cooling Degree Days 0 0  
Month to date cooling degree days 0 0  
Year to date cooling degree days 0 0  
Moisture  
Dew Point 17 °F    
Average Humidity 54    
Maximum Humidity 74    
Minimum Humidity 33    
Precipitation  
Precipitation 0.00 in 0.02 in 0.63 in (1969)
Month to date precipitation 0.00 0.10  
Year to date precipitation 0.00 0.10  
Sea Level Pressure  
Sea Level Pressure 30.10 in    
Wind  
Wind Speed 7 mph (NNW)    
Max Wind Speed 23 mph    
Max Gust Speed 28 mph    
Visibility 10 miles    
Events      
T = Trace of Precipitation, MM = Missing Value Source: NWS Daily Summary

Daily Weather History Graph

Daily Weather History Graph

Search for Another Location

Airport:

Trip Planner

Search our weather history database for the weather conditions in past years. The results will help you decide how hot, cold, wet, or windy it might be!

Date:

Astronomy

Jan. 06, 2012 Rise Set
Actual Time 7:45 AM MST 4:42 PM MST
Civil Twilight 7:11 AM MST 5:15 PM MST
Nautical Twilight 6:35 AM MST 5:52 PM MST
Astronomical Twilight 5:59 AM MST 6:27 PM MST
Moon 2:34 PM MST (1/6) 5:28 AM MST (1/6)
Length of Visible Light 10h 03m
Length of Day
8h 57m
Waxing Gibbous, 93% of the Moon is Illuminated
Jan 6
Waxing Gibbous
Jan 9
Full
Jan 16
Last Quarter
Jan 23
New
Jan 30
First Quarter

Hourly Weather History & Observations

Time (MST) Temp. Windchill Dew Point Humidity Pressure Visibility Wind Dir Wind Speed Gust Speed Precip Events Conditions
12:53 AM 35.6 °F 29.9 °F 24.8 °F 65% 29.99 in 10.0 mi NNW 6.9 mph - N/A   Overcast
1:53 AM 37.9 °F 30.0 °F 19.0 °F 47% 29.97 in 10.0 mi NW 12.7 mph - N/A   Overcast
2:53 AM 36.0 °F 30.3 °F 19.0 °F 50% 30.01 in 10.0 mi NNW 6.9 mph - N/A   Overcast
3:53 AM 36.0 °F 28.5 °F 17.1 °F 46% 30.02 in 10.0 mi North 10.4 mph - N/A   Overcast
4:53 AM 35.1 °F 26.4 °F 16.0 °F 46% 30.05 in 10.0 mi NNW 12.7 mph - N/A   Overcast
5:53 AM 33.1 °F 27.7 °F 17.1 °F 52% 30.10 in 10.0 mi NNW 5.8 mph - N/A   Overcast
6:53 AM 32.0 °F 27.5 °F 18.0 °F 56% 30.12 in 10.0 mi WNW 4.6 mph - N/A   Overcast
7:53 AM 33.1 °F 25.5 °F 17.1 °F 52% 30.15 in 10.0 mi NW 9.2 mph - N/A   Overcast
8:53 AM 33.1 °F 24.9 °F 16.0 °F 50% 30.19 in 10.0 mi NNW 10.4 mph - N/A   Overcast
9:53 AM 33.1 °F 26.1 °F 16.0 °F 50% 30.21 in 10.0 mi NNW 8.1 mph - N/A   Scattered Clouds
10:53 AM 36.0 °F 25.6 °F 12.9 °F 39% 30.19 in 10.0 mi NNW 18.4 mph 27.6 mph N/A   Clear
11:53 AM 37.4 °F 28.2 °F 14.0 °F 38% 30.09 in 10.0 mi NNW 16.1 mph - N/A   Clear
12:53 PM 39.0 °F 29.3 °F 14.0 °F 36% 30.13 in 10.0 mi NNW 19.6 mph - N/A   Clear
1:53 PM 39.0 °F 32.3 °F 14.0 °F 36% 30.11 in 10.0 mi NNW 10.4 mph - N/A   Clear
2:53 PM 39.0 °F 32.8 °F 12.9 °F 34% 30.12 in 10.0 mi North 9.2 mph - N/A   Clear
3:53 PM 37.9 °F - 12.0 °F 35% 30.12 in 10.0 mi Calm Calm - N/A   Clear
4:53 PM 26.6 °F - 17.6 °F 69% 30.06 in 10.0 mi Calm Calm - N/A   Clear
5:53 PM 25.0 °F 19.3 °F 16.0 °F 69% 30.16 in 10.0 mi Variable 4.6 mph - N/A   Clear
6:53 PM 24.8 °F 20.5 °F 17.6 °F 74% 30.03 in 10.0 mi South 3.5 mph - N/A   Clear
7:53 PM 26.1 °F - 18.0 °F 71% 30.12 in 10.0 mi Calm Calm - N/A   Clear
8:53 PM 26.1 °F - 18.0 °F 71% 30.11 in 10.0 mi Calm Calm - N/A   Clear
9:53 PM 27.0 °F - 17.1 °F 66% 30.11 in 10.0 mi Calm Calm - N/A   Clear
10:53 PM 26.1 °F - 17.1 °F 69% 30.11 in 10.0 mi Calm Calm - N/A   Clear
11:53 PM 25.0 °F - 19.0 °F 78% 30.10 in 10.0 mi Calm Calm - N/A   Clear